{"data":{"norad_id":43564,"epoch":"2026-05-21T01:58:16.699872Z","epoch_age_seconds":409641,"freshness":"STALE","line1":"1 43564U 18060A   26141.08213773 -.00000084  00000+0  00000+0 0  9993","line2":"2 43564  57.1776 342.5120 0003144 316.0402  43.9551  1.70475772 48708","mean_motion":1.70475772,"eccentricity":0.0003144,"inclination_deg":57.1776,"raan_deg":342.512,"arg_perigee_deg":316.0402,"mean_anomaly_deg":43.9551,"bstar":0,"rev_number":4870,"period_min":844.69481094358,"perigee_km":23212.671661927,"apogee_km":23231.2842142,"semimajor_km":29600.114938064,"source":"CELESTRAK","updated_at":"2026-05-25T13:38:24.060409Z"}}